Location: Unspecified
(48.8656°N, 0.0000°E)
Time: 17:37:26
(UTC+00:00)

Transit 2A Rocket - Pass Details

Date: 17 June 2019
Orbit: 590 x 913 km, 66.7° (Epoch: 22 August)

Event Time Altitude Azimuth Distance (km) Brightness Sun altitude
Rises 12:18:31 0° 229° (SW) 3,536 8.7 64.3°
Reaches altitude 10° 12:21:06 10° 234° (SW) 2,597 8.2 64.2°
Maximum altitude 12:27:05 56° 312° (NW) 1,065 6.4 64.0°
Drops below altitude 10° 12:32:52 10° 30° (NNE) 2,510 7.5 63.7°
Sets 12:35:20 0° 35° (NE) 3,409 8.1 63.6°
